Actual water levels and discharges of Elbe river

Guaranteed water level and forecast    Ústí nad Labem-Střekov

Guaranteed water level
140 cm
on 18.09.2020 more information
Forecast
140 cm
on 18.09.2020 06:00
Tendency
steady state
on 18.09.2020 metodika tendence
Forecast
(Source data ČHMÚ a Povodí Labe)

Děčín

Date and time (UTC) H (cm) Q (m3/s)
18. 9. 2020 11:50 129 131
18. 9. 2020 11:00 125 125
18. 9. 2020 10:00 119 116
18. 9. 2020 09:00 113 108
18. 9. 2020 08:00 108 101
18. 9. 2020 07:00 107 100
18. 9. 2020 06:00 108 101
18. 9. 2020 05:00 110 104
18. 9. 2020 04:00 112 107
18. 9. 2020 03:00 113 108
18. 9. 2020 02:00 114 109
18. 9. 2020 01:00 115 111
18. 9. 2020 00:00 116 112
17. 9. 2020 23:00 117 114

H - water level, Q - discharge

Ústí nad Labem

Date and time (UTC) H (cm) Q (m3/s)
18. 9. 2020 11:50 148 103
18. 9. 2020 11:00 151 107
18. 9. 2020 10:00 161 122
18. 9. 2020 09:00 179 151
18. 9. 2020 08:00 169 135
18. 9. 2020 07:00 168 133
18. 9. 2020 06:00 166 130
18. 9. 2020 05:00 163 125
18. 9. 2020 04:00 143 96
18. 9. 2020 03:00 139 91
18. 9. 2020 02:00 140 92
18. 9. 2020 01:00 140 92
18. 9. 2020 00:00 143 96
17. 9. 2020 23:00 146 100

H - water level, Q - discharge
more information

Mělník

Date and time (UTC) H (cm) Q (m3/s)
18. 9. 2020 11:50 258 -
18. 9. 2020 11:00 257 -
18. 9. 2020 10:00 260 -
18. 9. 2020 09:00 260 -
18. 9. 2020 08:00 258 -
18. 9. 2020 07:00 259 -
18. 9. 2020 06:00 262 85
18. 9. 2020 05:00 263 -
18. 9. 2020 04:00 263 -
18. 9. 2020 03:00 263 -
18. 9. 2020 02:00 259 -
18. 9. 2020 01:00 254 -
18. 9. 2020 00:00 256 -
17. 9. 2020 23:00 266 -

H - water level, Q - discharge
more information

Kostelec nad Labem

Date and time (UTC) H (cm) Q (m3/s)
18. 9. 2020 11:50 409 -
18. 9. 2020 11:00 398 42
18. 9. 2020 10:00 401 15
18. 9. 2020 09:00 397 13
18. 9. 2020 08:00 400 15
18. 9. 2020 07:00 400 21
18. 9. 2020 06:00 400 23
18. 9. 2020 05:00 400 23
18. 9. 2020 04:00 401 24
18. 9. 2020 03:00 401 27
18. 9. 2020 02:00 400 25
18. 9. 2020 01:00 399 21
18. 9. 2020 00:00 401 23
17. 9. 2020 23:00 400 28

H - water level, Q - discharge
more information

Přelouč

Date and time (UTC) H (cm) Q (m3/s)
18. 9. 2020 11:50 60 25.1
18. 9. 2020 11:00 63 27
18. 9. 2020 10:00 51 20
18. 9. 2020 09:00 50 19
18. 9. 2020 08:00 52 20
18. 9. 2020 07:00 55 22
18. 9. 2020 06:00 57 23
18. 9. 2020 05:00 57 23
18. 9. 2020 04:00 57 23
18. 9. 2020 03:00 60 25
18. 9. 2020 02:00 61 26
18. 9. 2020 01:00 61 26
18. 9. 2020 00:00 61 26
17. 9. 2020 23:00 58 24

H - water level, Q - discharge
more information

Němčice

Date and time (UTC) H (cm) Q (m3/s)
18. 9. 2020 11:40 80 17.6
18. 9. 2020 11:00 79 17
18. 9. 2020 10:00 76 16
18. 9. 2020 09:00 76 16
18. 9. 2020 08:00 76 16
18. 9. 2020 07:00 75 16
18. 9. 2020 06:00 75 16
18. 9. 2020 05:00 75 16
18. 9. 2020 04:00 75 16
18. 9. 2020 03:00 76 16
18. 9. 2020 02:00 79 17
18. 9. 2020 01:00 80 18
18. 9. 2020 00:00 79 17
17. 9. 2020 23:00 79 17

H - water level, Q - discharge
Source data
Labe Basin Vltava Basin Povodí Moravy ČHMÚ